CST,Max TemperatureF,Mean TemperatureF,Min TemperatureF,Max Dew PointF,MeanDew PointF,Min DewpointF,Max Humidity, Mean Humidity, Min Humidity, Max Sea Level PressureIn, Mean Sea Level PressureIn, Min Sea Level PressureIn, Max VisibilityMiles, Mean VisibilityMiles, Min VisibilityMiles, Max Wind SpeedMPH, Mean Wind SpeedMPH, Max Gust SpeedMPH,PrecipitationIn, CloudCover, Events, WindDirDegrees
2013-11-1,48,41,33,43,39,33,93,82,71,29.80,29.61,29.43,10,10,9,18,9,23,T,7,,276
2013-11-2,47,37,27,36,32,26,100,79,58,30.17,30.02,29.81,10,10,9,16,8,21,0.00,3,,329
2013-11-3,51,38,24,35,31,23,92,72,52,30.28,30.21,30.14,10,10,10,22,12,28,0.00,0,,161
2013-11-4,53,47,41,45,40,34,93,77,61,30.17,30.09,30.02,10,10,10,24,14,32,0.00,5,,182
2013-11-5,53,49,45,54,49,44,100,93,86,30.24,30.05,29.83,10,5,2,30,12,36,0.37,8,Rain,143
2013-11-6,56,43,29,55,36,22,100,73,45,30.26,29.98,29.72,10,9,3,25,15,31,0.11,5,Rain,308
2013-11-7,42,33,24,31,27,22,92,79,65,30.30,30.25,30.21,10,10,8,16,8,21,0.00,4,,269
2013-11-8,47,35,23,34,28,21,96,73,49,30.31,30.11,29.80,10,10,9,28,12,39,0.00,1,,182
2013-11-9,53,44,35,39,35,28,86,71,56,30.20,29.98,29.80,10,10,10,28,15,36,0.00,2,,270
2013-11-10,47,37,27,32,29,26,85,69,53,30.39,30.30,30.17,10,10,10,20,9,25,0.00,4,,264
2013-11-11,43,31,18,33,26,13,100,81,62,30.64,30.30,30.09,10,7,0,23,13,29,0.12,6,Fog-Snow,353
2013-11-12,25,19,13,16,13,10,88,75,62,30.80,30.72,30.63,10,10,10,14,8,18,0.00,0,,306
2013-11-13,41,27,13,19,16,11,88,63,38,30.60,30.34,30.10,10,10,10,25,15,31,0.00,0,,208
2013-11-14,48,38,28,29,25,19,75,59,42,30.08,29.97,29.91,10,10,10,23,12,36,0.00,1,,212
2013-11-15,54,41,28,34,31,26,92,69,46,29.95,29.90,29.84,10,10,10,14,9,17,0.00,1,,192
2013-11-16,58,47,36,56,48,33,100,96,92,29.83,29.60,29.41,10,5,1,31,18,39,0.13,7,Rain-Thunderstorm,175
2013-11-17,56,47,37,55,48,33,100,90,79,29.83,29.43,29.25,10,7,1,36,16,46,0.91,7,Rain-Thunderstorm,273
2013-11-18,40,32,23,32,26,21,89,72,54,30.30,30.11,29.85,10,10,10,29,14,38,0.00,2,,297
2013-11-19,41,31,20,29,25,20,96,75,54,30.36,30.29,30.20,10,10,10,21,10,26,0.00,0,,141
2013-11-20,37,35,32,37,32,28,100,85,70,30.19,30.11,30.04,10,7,3,24,14,30,0.09,8,Rain-Snow,153
2013-11-21,40,38,35,37,36,35,100,93,85,30.31,30.18,30.06,8,4,1,14,7,17,0.01,8,Snow,5
2013-11-22,36,28,19,33,25,14,100,82,63,30.55,30.45,30.30,9,7,1,21,11,29,0.06,5,Snow,336
2013-11-23,20,14,8,14,7,4,84,67,49,30.79,30.69,30.52,9,9,9,23,12,30,T,1,,335
2013-11-24,26,16,5,10,5,2,96,65,33,30.76,30.58,30.31,9,9,9,23,11,28,0.00,0,,213
2013-11-25,30,25,20,26,21,10,100,80,59,30.27,30.12,30.07,9,5,0,24,14,29,0.13,7,Fog-Snow,224
2013-11-26,30,21,11,26,14,3,100,74,47,30.30,30.16,30.04,10,9,9,24,12,30,0.00,5,,315
2013-11-27,23,16,8,12,7,0,80,67,54,30.37,30.30,30.23,9,9,9,14,7,17,0.00,2,,325
2013-11-28,28,18,8,16,12,7,92,78,63,30.54,30.31,30.14,9,9,9,17,6,20,0.00,2,,217
2013-11-29,31,20,8,21,16,7,92,78,63,30.62,30.51,30.33,10,10,9,17,9,22,0.00,0,,164
2013-11-30,43,34,24,33,26,20,92,79,65,30.30,30.14,30.06,10,10,7,15,8,18,0.00,0,,221